TimeGMT,TemperatureF,Dew PointF,Humidity,Sea Level PressureIn,VisibilityMPH,Wind Direction,Wind SpeedMPH,Gust SpeedMPH,PrecipitationIn,Events,Conditions,WindDirDegrees,DateUTC
12:50 AM,50.0,44.6,82,29.71,6.2,South,9.2,-,N/A,,Overcast,190,2012-11-21 00:50:00
1:50 AM,50.0,44.6,82,29.71,6.2,South,6.9,-,N/A,,Overcast,170,2012-11-21 01:50:00
2:50 AM,48,45,86,29.73,15,South,5.8,,,Rain,Rain,180,2012-11-21 02:50:00
2:50 AM,48.2,44.6,87,29.71,6.2,South,5.8,-,N/A,,Overcast,180,2012-11-21 02:50:00
3:50 AM,48.2,42.8,82,29.71,6.2,SSE,8.1,-,N/A,Rain,Light Rain Showers,150,2012-11-21 03:50:00
4:50 AM,46.4,42.8,87,29.74,6.2,South,4.6,-,N/A,Rain,Light Rain,170,2012-11-21 04:50:00
5:50 AM,46,44,88,29.74,6,South,1.2,,,Rain,Rain,190,2012-11-21 05:50:00
5:50 AM,46.4,42.8,87,29.74,6.2,South,1.2,-,N/A,Rain,Rain,190,2012-11-21 05:50:00
6:50 AM,44.6,44.6,100,29.71,3.7,NE,3.5,-,N/A,Rain,Rain,40,2012-11-21 06:50:00
7:50 AM,44.6,44.6,100,29.71,5.6,NNE,3.5,-,N/A,Rain,Rain,30,2012-11-21 07:50:00
8:50 AM,45,44,94,29.70,5,NNW,9.2,,,Rain,Rain,340,2012-11-21 08:50:00
8:50 AM,44.6,44.6,100,29.68,5.0,NNW,9.2,-,N/A,Rain,Rain,340,2012-11-21 08:50:00
9:50 AM,44.6,42.8,93,29.68,4.3,NNW,12.7,-,N/A,Rain,Rain,340,2012-11-21 09:50:00
10:50 AM,44.6,42.8,93,29.68,4.3,North,13.8,-,N/A,Rain,Rain,350,2012-11-21 10:50:00
11:50 AM,43,42,93,29.68,5,NNW,12.7,,,Rain,Rain,340,2012-11-21 11:50:00
11:50 AM,42.8,41.0,93,29.65,5.0,NNW,12.7,-,N/A,Rain,Rain,340,2012-11-21 11:50:00
12:50 PM,44.6,42.8,93,29.65,6.2,North,12.7,-,N/A,Rain,Light Rain,350,2012-11-21 12:50:00
1:50 PM,44.6,41.0,87,29.65,6.2,NNW,12.7,-,N/A,,Mostly Cloudy,340,2012-11-21 13:50:00
2:50 PM,44,40,81,29.70,25,North,11.5,,,,Partly Cloudy,350,2012-11-21 14:50:00
2:50 PM,44.6,41.0,87,29.68,6.2,North,11.5,-,N/A,,Mostly Cloudy,350,2012-11-21 14:50:00
3:50 PM,42.8,39.2,87,29.71,6.2,WNW,9.2,-,N/A,,Mostly Cloudy,290,2012-11-21 15:50:00
4:50 PM,44.6,39.2,81,29.74,6.2,WNW,8.1,-,N/A,,Mostly Cloudy,290,2012-11-21 16:50:00
5:50 PM,44,39,78,29.78,37,West,6.9,,,,Partly Cloudy,270,2012-11-21 17:50:00
5:50 PM,44.6,39.2,81,29.77,6.2,West,6.9,-,N/A,,Scattered Clouds,270,2012-11-21 17:50:00
6:50 PM,42.8,39.2,87,29.80,6.2,WSW,9.2,-,N/A,,Unknown,250,2012-11-21 18:50:00
7:50 PM,41.0,39.2,93,29.80,6.2,SW,5.8,-,N/A,,Unknown,220,2012-11-21 19:50:00
8:50 PM,38,37,93,29.83,5,SSW,5.8,,,,Mist,200,2012-11-21 20:50:00
8:50 PM,37.4,37.4,100,29.83,5.0,SSW,5.8,-,N/A,,Mist,200,2012-11-21 20:50:00
9:50 PM,39.2,37.4,93,29.83,6.2,South,6.9,-,N/A,,Unknown,190,2012-11-21 21:50:00
10:50 PM,39.2,37.4,93,29.83,6.2,South,9.2,-,N/A,,Unknown,170,2012-11-21 22:50:00
11:50 PM,40,38,89,29.83,12,South,8.1,,,,,180,2012-11-21 23:50:00
11:50 PM,41.0,37.4,87,29.83,6.2,South,8.1,-,N/A,,Unknown,180,2012-11-21 23:50:00